Location: Dover
(48.8500°N, 53.9833°W)
Time: 17:07:36
(UTC+00:00)

Cosmos 1943 Rocket - Pass Details

Date: 14 November 2025
Orbit: 812 x 841 km, 71.0° (Epoch: 09 December)

Event Time Altitude Azimuth Distance (km) Brightness Sun altitude
Rises 22:02:26 0° 203° (SSW) 3,374 5.7 -20.6°
Reaches altitude 10° 22:04:52 10° 203° (SSW) 2,441 4.9 -21.0°
Maximum altitude 22:10:28 83° 116° (ESE) 843 2.0 -21.9°
Enters shadow 22:13:18 31° 31° (NNE) 1,435 3.1 -22.4°
